Home > Weather > Fort Collins > Past weeks

Flag for USA Past Weather in Fort Collins, Colorado, USA — Yesterday and Last 2 Weeks

Now
64 °F

Clear.


Feels Like: 64 °F
Forecast: 58 / 87 °F
Wind: 7 mph from North

Location: Fort Collins-Loveland Municipal Airport

Current Time: Jul 30, 2016 at 1:33:32 AM

Latest Report: Jul 30, 2016 at 12:55 AM


Visibility: 10 mi

Pressure: 30.13 "Hg (25.20 "Hg at 1522m altitude)

Humidity: 83%

Dew Point: 59 °F

Location of Fort CollinsLocation

Past Weather in Fort Collins — Graph

°F

Fort Collins Temperature Yesterday

Maximum temperature yesterday: 86 °F (at 5:55 PM)
Minimum temperature yesterday: 43 °F (at 1:55 AM)
Average temperature yesterday: 63 °F

High & Low Weather Summary for the Past Weeks

 TemperatureHumidityPressure
High97 °F (Jul 21, 4:35 PM)100% (Jul 15, 6:35 AM)30.27 "Hg (Jul 15, 6:35 AM)
Low36 °F (Jul 15, 3:15 AM)17% (Jul 21, 4:35 PM)29.88 "Hg (Jul 16, 3:35 PM)
Average63 °F67%30.14 "Hg
* Reported Jul 15 12:15 AM — Jul 30 12:35 AM, Fort Collins, Weather by CustomWeather, © 2016

Note: Actual official high and low records may vary slightly from our data, if they occured in-between our weather recording intervals... More about our weather records

Advertising

Fort Collins Weather History for the Previous 24 Hours

Scroll right to see more
 ConditionsComfort  
Time TempWeatherWind HumidityBarometerVisibility
12:35 AM
Sat, Jul 30
64 °FClear.7 mph83%30.13 "Hg10 mi
12:15 AM66 °FClear.6 mph83%30.13 "Hg10 mi
11:55 PM
Fri, Jul 29
66 °FClear.7 mph78%30.14 "Hg10 mi
11:35 PM66 °FClear.6 mph78%30.14 "Hg10 mi
11:15 PM66 °FPassing clouds.3 mph83%30.14 "Hg10 mi
10:55 PM68 °FPassing clouds.8 mph78%30.14 "Hg10 mi
10:35 PM66 °FPassing clouds.8 mph83%30.15 "Hg10 mi
10:15 PM66 °FPassing clouds.No wind83%30.14 "Hg10 mi
9:55 PM64 °FClear.No wind88%30.14 "Hg10 mi
9:35 PM66 °FPassing clouds.5 mph83%30.13 "Hg10 mi
9:15 PM46 °FScattered clouds.8 mphN/A30.12 "Hg10 mi
8:55 PM48 °FPassing clouds.9 mphN/A30.12 "Hg10 mi
8:35 PM50 °FThundershowers. Passing clouds.18 mphN/A30.08 "Hg10 mi
8:15 PM52 °FPassing clouds.18 mphN/A30.07 "Hg10 mi
7:55 PM73 °FSunny.23 mph57%30.06 "Hg10 mi
7:35 PM75 °FSunny.16 mph50%30.06 "Hg10 mi
7:15 PM75 °FPassing clouds.16 mph50%30.05 "Hg10 mi
6:55 PM79 °FScattered clouds.22 mph48%30.04 "Hg10 mi
6:35 PM84 °FSunny.15 mph37%30.02 "Hg10 mi
6:15 PM84 °FThundershowers. Sunny.7 mph37%30.02 "Hg10 mi
5:55 PM86 °FSunny.9 mph35%30.02 "Hg10 mi
5:35 PM84 °FSunny.10 mph37%30.02 "Hg10 mi
5:15 PM84 °FSunny.10 mph40%30.02 "Hg10 mi
4:55 PM84 °FSunny.12 mph40%30.03 "Hg10 mi
4:35 PM84 °FSunny.8 mph40%30.05 "Hg10 mi
4:15 PM84 °FSunny.12 mph43%30.05 "Hg10 mi
3:55 PM84 °FSunny.12 mph43%30.06 "Hg10 mi
3:35 PM82 °FSunny.12 mph45%30.07 "Hg10 mi
3:15 PM81 °FSunny.9 mph48%30.09 "Hg10 mi
2:55 PM82 °FSunny.7 mph45%30.10 "Hg10 mi
2:35 PM82 °FSunny.10 mph45%30.11 "Hg10 mi
2:15 PM82 °FSunny.9 mph42%30.12 "Hg10 mi
1:55 PM82 °FPassing clouds.8 mph42%30.14 "Hg10 mi
1:35 PM82 °FScattered clouds.12 mph45%30.15 "Hg10 mi
1:15 PM81 °FBroken clouds.9 mph48%30.15 "Hg9 mi
12:55 PM81 °FScattered clouds.8 mph51%30.15 "Hg10 mi
12:35 PM79 °FScattered clouds.12 mph54%30.16 "Hg10 mi
12:15 PM79 °FPassing clouds.7 mph54%30.16 "Hg7 mi
11:55 AM79 °FPassing clouds.3 mph51%30.17 "Hg10 mi
11:35 AM77 °FSunny.7 mph57%30.17 "Hg10 mi
11:15 AM75 °FPassing clouds.9 mph61%30.18 "Hg5 mi
10:55 AM75 °FPassing clouds.3 mph61%30.18 "Hg10 mi
10:35 AM55 °FPassing clouds.6 mph100%30.18 "Hg10 mi
10:15 AM50 °FSunny.No windN/A30.19 "Hg10 mi
9:55 AM52 °FPassing clouds.3 mphN/A30.19 "Hg10 mi
9:35 AM48 °FSunny.3 mphN/A30.19 "Hg10 mi
9:15 AM46 °FScattered clouds.5 mphN/A30.19 "Hg10 mi
8:55 AM46 °FMostly cloudy.3 mphN/A30.20 "Hg10 mi
8:35 AM45 °FMostly cloudy.3 mphN/A30.20 "Hg10 mi
8:15 AM43 °FBroken clouds.6 mphN/A30.20 "Hg10 mi
7:55 AM43 °FOvercast.6 mphN/A30.20 "Hg10 mi
7:35 AM45 °FOvercast.No windN/A30.20 "Hg10 mi
7:15 AM64 °FPartly sunny.No wind88%30.20 "Hg10 mi
6:55 AM64 °FPartly sunny.No wind88%30.20 "Hg10 mi
6:35 AM64 °FOvercast.3 mph88%30.20 "Hg10 mi
6:15 AM64 °FOvercast.6 mph88%30.20 "Hg10 mi
5:55 AM64 °FOvercast.5 mph88%30.19 "Hg10 mi
5:35 AM54 °FOvercast.9 mphN/A30.19 "Hg10 mi
5:15 AM43 °FMostly cloudy.6 mphN/A30.19 "Hg10 mi
4:55 AM43 °FPassing clouds.3 mphN/A30.18 "Hg10 mi
4:35 AM43 °FPartly cloudy.3 mphN/A30.19 "Hg10 mi
4:15 AM43 °FPassing clouds.5 mphN/A30.19 "Hg10 mi
3:55 AM43 °FPassing clouds.5 mphN/A30.19 "Hg10 mi
3:35 AM45 °FOvercast.6 mphN/A30.20 "Hg10 mi
3:15 AM43 °FPassing clouds.No windN/A30.21 "Hg10 mi
2:55 AM43 °FPassing clouds.3 mphN/A30.21 "Hg10 mi
2:35 AM43 °FOvercast.No windN/A30.22 "Hg10 mi
2:15 AM43 °FPassing clouds.No windN/A30.22 "Hg10 mi
1:55 AM43 °FPassing clouds.6 mphN/A30.22 "Hg10 mi
1:35 AM45 °FPassing clouds.8 mphN/A30.23 "Hg10 mi
1:15 AM45 °FPassing clouds.10 mphN/A30.24 "Hg10 mi
Weather by CustomWeather, © 2016

See weather overviewHow to use our weather pages